Change the Weather History Date:

Friday, February 14, 2014

  Actual Average (KMRF) Record (KMRF)
Temperature  
Mean Temperature 64 °F -  
Max Temperature 80 °F 59 °F 75 °F (2014)
Min Temperature 48 °F 29 °F 19 °F (2004)
Degree Days  
Heating Degree Days 1    
Growing Degree Days 14 (Base 50)    
Moisture  
Dew Point 19 °F    
Average Humidity 18    
Maximum Humidity 33    
Minimum Humidity 9    
Precipitation  
Precipitation 0.00 in - - ()
Sea Level Pressure  
Sea Level Pressure 30.12 in    
Wind  
Wind Speed 10 mph (West)    
Max Wind Speed 17 mph    
Max Gust Speed 28 mph    
Visibility 10 miles    
Events      
Averages and records for this station are not official NWS values.
T = Trace of Precipitation, MM = Missing Value Source: NWS Daily Summary

Daily Weather History Graph

Daily Weather History Graph

Search for Another Location

Airport or City:

Trip Planner

Search our weather history database for the weather conditions in past years. The results will help you decide how hot, cold, wet, or windy it might be!

Date:

Astronomy

Feb. 14, 2014 Rise Set
Actual Time 7:35 AM CST 6:42 PM CST
Civil Twilight 7:11 AM CST 7:06 PM CST
Nautical Twilight 6:43 AM CST 7:35 PM CST
Astronomical Twilight 6:15 AM CST 8:03 PM CST
Moon 6:44 PM CST (2/14) 7:06 AM CST (2/14)
Length of Visible Light 11h 55m
Length of Day
11h 06m
Full, 100% of the Moon is Illuminated
Feb 14
Full
Feb 14
Full
Feb 22
Last Quarter
Mar 1
New
Mar 8
First Quarter

Hourly Weather History & Observations

Time (CST) Temp. Dew Point Humidity Pressure Visibility Wind Dir Wind Speed Gust Speed Precip Events Conditions
12:15 AM 55.9 °F 18.7 °F 23% 30.08 in 10.0 mi WSW 8.1 mph - N/A   Clear
12:35 AM 57.0 °F 18.7 °F 22% 30.08 in 10.0 mi West 5.8 mph - N/A   Clear
12:55 AM 54.0 °F 18.5 °F 25% 30.08 in 10.0 mi Calm Calm - N/A   Clear
1:15 AM 57.9 °F 18.5 °F 22% 30.06 in 10.0 mi South 4.6 mph - N/A   Clear
1:35 AM 58.6 °F 18.9 °F 21% 30.05 in 10.0 mi WSW 11.5 mph - N/A   Clear
1:55 AM 58.8 °F 18.5 °F 21% 30.06 in 10.0 mi WSW 12.7 mph - N/A   Clear
2:15 AM 58.1 °F 18.5 °F 21% 30.07 in 10.0 mi West 11.5 mph - N/A   Clear
2:35 AM 57.7 °F 18.3 °F 22% 30.08 in 10.0 mi WSW 11.5 mph - N/A   Clear
2:55 AM 57.4 °F 18.5 °F 22% 30.08 in 10.0 mi WSW 13.8 mph - N/A   Clear
3:15 AM 58.5 °F 18.5 °F 21% 30.08 in 10.0 mi West 12.7 mph - N/A   Clear
3:35 AM 59.2 °F 18.3 °F 20% 30.07 in 10.0 mi West 12.7 mph - N/A   Clear
3:55 AM 59.5 °F 18.3 °F 20% 30.07 in 10.0 mi West 15.0 mph - N/A   Clear
4:15 AM 57.6 °F 18.1 °F 22% 30.07 in 10.0 mi West 13.8 mph - N/A   Clear
4:35 AM 57.4 °F 18.1 °F 22% 30.07 in 10.0 mi WSW 13.8 mph - N/A   Clear
4:55 AM 58.6 °F 18.0 °F 21% 30.07 in 10.0 mi WSW 12.7 mph - N/A   Clear
5:15 AM 58.3 °F 17.6 °F 20% 30.08 in 10.0 mi WSW 12.7 mph - N/A   Clear
5:35 AM 57.7 °F 17.6 °F 21% 30.09 in 10.0 mi West 9.2 mph - N/A   Clear
5:55 AM 56.7 °F 17.6 °F 22% 30.08 in 10.0 mi WSW 9.2 mph - N/A   Clear
6:15 AM 57.4 °F 17.6 °F 21% 30.09 in 10.0 mi WSW 12.7 mph - N/A   Clear
6:35 AM 57.2 °F 17.6 °F 21% 30.09 in 10.0 mi WSW 9.2 mph - N/A   Clear
6:55 AM 57.7 °F 17.6 °F 21% 30.10 in 10.0 mi WSW 11.5 mph - N/A   Clear
7:15 AM 58.1 °F 17.4 °F 20% 30.11 in 10.0 mi WSW 11.5 mph - N/A   Clear
7:35 AM 57.6 °F 17.1 °F 21% 30.12 in 10.0 mi WSW 11.5 mph - N/A   Clear
7:55 AM 58.5 °F 17.2 °F 20% 30.13 in 10.0 mi WSW 12.7 mph - N/A   Clear
8:15 AM 60.3 °F 17.1 °F 19% 30.13 in 10.0 mi WSW 13.8 mph - N/A   Clear
8:35 AM 62.2 °F 17.4 °F 18% 30.13 in 10.0 mi WSW 13.8 mph - N/A   Clear
8:55 AM 64.4 °F 17.6 °F 16% 30.15 in 10.0 mi West 11.5 mph - N/A   Clear
9:15 AM 66.4 °F 18.1 °F 16% 30.15 in 10.0 mi West 17.3 mph - N/A   Clear
9:35 AM 68.0 °F 18.7 °F 15% 30.16 in 10.0 mi West 13.8 mph - N/A   Clear
9:55 AM 69.4 °F 19.2 °F 15% 30.16 in 10.0 mi West 13.8 mph - N/A   Clear
10:15 AM 70.7 °F 19.4 °F 14% 30.17 in 10.0 mi West 10.4 mph - N/A   Clear
10:35 AM 72.1 °F 19.8 °F 14% 30.17 in 10.0 mi West 12.7 mph 17.3 mph N/A   Clear
10:55 AM 72.7 °F 19.9 °F 14% 30.19 in 10.0 mi WSW 12.7 mph - N/A   Clear
11:15 AM 72.7 °F 19.9 °F 14% 30.19 in 10.0 mi West 11.5 mph 18.4 mph N/A   Clear
11:35 AM 74.5 °F 20.3 °F 13% 30.18 in 10.0 mi WSW 11.5 mph - N/A   Clear
11:55 AM 74.8 °F 20.1 °F 13% 30.17 in 10.0 mi West 6.9 mph - N/A   Clear
12:15 PM 76.3 °F 20.1 °F 12% 30.15 in 10.0 mi West 3.5 mph - N/A   Clear
12:35 PM 77.0 °F 17.8 °F 11% 30.15 in 10.0 mi NW 11.5 mph 17.3 mph N/A   Clear
12:55 PM 78.6 °F 17.2 °F 10% 30.14 in 10.0 mi NNW 17.3 mph 21.9 mph N/A   Clear
1:15 PM 78.8 °F 16.5 °F 10% 30.13 in 10.0 mi NNW 9.2 mph 27.6 mph N/A   Clear
1:35 PM 79.2 °F 16.3 °F 9% 30.12 in 10.0 mi NNW 13.8 mph 23.0 mph N/A   Clear
1:55 PM 80.2 °F 17.2 °F 9% 30.11 in 10.0 mi North 15.0 mph - N/A   Clear
2:15 PM 80.1 °F 17.1 °F 9% 30.11 in 10.0 mi NW 15.0 mph 20.7 mph N/A   Clear
2:35 PM 79.2 °F 17.1 °F 10% 30.10 in 10.0 mi NW 5.8 mph 19.6 mph N/A   Clear
2:55 PM 80.1 °F 17.6 °F 10% 30.09 in 10.0 mi West 10.4 mph 17.3 mph N/A   Clear
3:15 PM 79.3 °F 17.6 °F 10% 30.09 in 10.0 mi WNW 6.9 mph 16.1 mph N/A   Clear
3:35 PM 79.3 °F 18.0 °F 10% 30.09 in 10.0 mi NE 4.6 mph 20.7 mph N/A   Clear
3:55 PM 79.5 °F 19.2 °F 11% 30.09 in 10.0 mi West 11.5 mph 17.3 mph N/A   Clear
4:15 PM 79.7 °F 18.5 °F 10% 30.09 in 10.0 mi NW 9.2 mph - N/A   Clear
4:35 PM 78.1 °F 18.7 °F 11% 30.09 in 10.0 mi WNW 12.7 mph 18.4 mph N/A   Clear
4:55 PM 78.3 °F 19.0 °F 11% 30.10 in 10.0 mi NW 6.9 mph - N/A   Clear
5:15 PM 77.9 °F 18.9 °F 11% 30.11 in 10.0 mi West 15.0 mph 18.4 mph N/A   Clear
5:35 PM 76.8 °F 18.5 °F 11% 30.11 in 10.0 mi West 12.7 mph 19.6 mph N/A   Clear
5:55 PM 74.7 °F 18.3 °F 12% 30.11 in 10.0 mi WNW 10.4 mph 18.4 mph N/A   Clear
6:15 PM 74.1 °F 18.5 °F 12% 30.12 in 10.0 mi WNW 10.4 mph - N/A   Clear
6:35 PM 71.8 °F 18.3 °F 13% 30.13 in 10.0 mi WNW 8.1 mph - N/A   Clear
6:55 PM 66.9 °F 18.1 °F 15% 30.13 in 10.0 mi West 10.4 mph - N/A   Clear
7:15 PM 62.8 °F 18.0 °F 18% 30.14 in 10.0 mi WSW 10.4 mph - N/A   Clear
7:35 PM 62.2 °F 18.0 °F 18% 30.15 in 10.0 mi WSW 11.5 mph - N/A   Clear
7:55 PM 62.1 °F 18.3 °F 18% 30.15 in 10.0 mi West 11.5 mph - N/A   Clear
8:15 PM 59.9 °F 18.3 °F 20% 30.15 in 10.0 mi West 9.2 mph - N/A   Clear
8:35 PM 58.6 °F 18.3 °F 21% 30.15 in 10.0 mi WSW 8.1 mph - N/A   Clear
8:55 PM 60.8 °F 18.7 °F 20% 30.16 in 10.0 mi SSW 4.6 mph - N/A   Clear
9:15 PM 58.1 °F 20.5 °F 23% 30.18 in 10.0 mi East 3.5 mph - N/A   Clear
9:35 PM 55.4 °F 21.9 °F 27% 30.19 in 10.0 mi Calm Calm - N/A   Clear
9:55 PM 52.3 °F 20.7 °F 29% 30.19 in 10.0 mi WSW 5.8 mph - N/A   Clear
10:15 PM 50.5 °F 21.2 °F 32% 30.19 in 10.0 mi SW 5.8 mph - N/A   Clear
10:35 PM 50.7 °F 21.9 °F 32% 30.19 in 10.0 mi SW 6.9 mph - N/A   Clear
10:55 PM 51.1 °F 21.9 °F 32% 30.18 in 10.0 mi WSW 8.1 mph - N/A   Clear
11:15 PM 48.4 °F 20.7 °F 33% 30.18 in 10.0 mi South 8.1 mph - N/A   Clear
11:35 PM 50.2 °F 20.1 °F 31% 30.18 in 10.0 mi South 5.8 mph - N/A   Clear
11:55 PM 52.0 °F 19.4 °F 28% 30.19 in 10.0 mi South 4.6 mph - N/A   Clear